Presure
263 231 229 228 195 194 172 205 167 195 169 182 210 191 181 195 194 230 198 240 219 215 183 126 121 120 125 133 145 147 111 132 155 79 120 76 79 72 83 139 79 109 147 97 79
226 227 246 230 233 208 211 170 194 171 195 198 169 153 180 190 201 200 213 232 249 216 104 195 117 111 121 125 139 145 112 75 149 78 82 114 101 121 168 136 151 67 124 80 137
350 258 233 248 243 230 229 219 218 202 205 204 175 191 178 171 173 173 175 232 245 250 246 194 224 154 126 125 123 151 130 136 113 149 154 120 141 118 90 126 191 69 137 133 142
328 332 320 259 240 241 230 219 218 227 225 220 219 201 220 218 205 209 229 197 228 197 250 213 223 120 152 121 116 122 178 137 132 143 146 161 132 131 169 153 124 139 147 172 151
334 315 314 300 266 242 244 228 233 230 222 225 225 221 224 216 227 225 194 176 228 217 190 245 247 251 165 121 125 137 126 151 158 134 140 137 145 89 148 159 123 152 128 158 131
325 318 315 315 342 296 254 250 235 226 227 227 229 225 224 228 229 229 233 228 233 229 251 189 210 244 254 224 155 145 133 129 157 146 143 138 140 131 129 145 164 137 131 160 141
345 327 332 315 302 292 294 255 251 240 224 227 229 235 230 239 221 231 249 249 257 262 250 247 193 196 198 226 259 143 136 137 132 184 184 148 123 136 142 125 156 148 133 165 157
330 342 358 336 309 300 300 288 285 267 248 243 245 244 239 238 245 284 255 253 253 268 248 245 248 249 212 207 228 261 159 133 142 137 202 142 151 126 141 154 143 124 170 152 113
337 340 335 368 327 323 310 311 302 273 270 277 283 275 278 268 275 270 267 214 238 253 256 249 243 242 249 259 263 270 188 137 145 212 145 187 136 115 140 138 125 140 152 156 160
349 365 347 347 346 305 308 304 293 281 276 261 259 266 272 267 270 263 263 257 250 251 258 259 247 249 260 251 259 268 257 216 146 188 287 205 144 128 133 131 140 127 156 154 164
391 385 357 342 341 345 314 301 304 286 275 299 274 265 259 257 261 259 261 260 256 260 252 256 251 251 257 260 269 262 303 239 293 151 300 277 115 135 137 129 131 113 176 138 159
423 431 398 376 359 353 326 302 297 306 287 303 298 277 265 263 261 265 258 258 263 271 263 262 260 267 263 299 293 286 275 285 282 147 271 303 175 124 130 139 128 131 150 123 161
269 360 410 393 383 387 376 338 297 297 305 295 304 286 284 270 264 261 261 260 257 266 272 269 261 266 284 278 281 292 289 293 295 237 307 338 211 236 139 144 145 131 139 174 145
334 270 412 426 435 383 397 373 345 313 303 324 315 301 290 285 290 286 282 293 283 282 279 272 282 277 281 283 278 294 300 310 304 320 144 413 421 410 148 103 116 98 163 134 116
363 318 288 394 396 380 384 372 377 371 312 314 306 322 313 304 301 292 287 297 287 297 301 293 288 303 295 291 313 311 335 407 383 349 360 367 371 378 393 136 106 142 166 148 143
379 350 301 269 390 410 405 376 391 368 382 311 319 299 292 319 312 318 306 306 311 306 302 293 305 314 305 423 394 325 323 324 319 326 339 353 357 363 314 160 151 132 128 107 133
404 378 341 298 287 361 417 365 371 373 364 358 360 337 329 321 311 317 309 313 311 324 354 398 361 324 311 302 291 288 287 287 292 230 306 166 321 328 311 314 149 134 128 133 135
153 369 309 164 295 277 316 331 346 378 373 365 381 386 378 376 384 384 402 401 332 308 305 299 283 278 272 272 280 281 284 278 283 291 276 154 156 166 170 173 148 146 82 133 134
261 393 139 197 138 235 271 283 304 310 326 326 330 328 321 317 312 307 298 293 287 273 269 267 272 275 266 270 270 270 256 278 285 286 289 295 303 363 305 393 400 354 112 133 138
237 260 372 256 298 349 140 125 140 188 295 293 292 289 288 283 283 283 282 275 272 271 272 272 268 265 267 263 270 269 295 302 327 341 323 317 332 333 331 334 150 144 150 147 308
193 160 259 423 412 388 362 341 273 226 256 271 274 271 276 270 269 266 264 259 261 257 256 258 256 256 256 217 257 308 305 313 312 302 297 305 314 304 271 187 163 151 143 150 146
216 173 157 253 399 388 379 381 385 155 140 135 251 205 142 153 255 252 251 253 247 249 247 247 251 253 293 288 247 305 267 287 158 272 294 276 188 149 150 286 274 132 162 138 133
203 179 188 148 167 368 289 367 373 367 365 360 186 243 271 236 193 226 239 157 253 291 299 293 287 283 283 299 276 268 261 260 239 252 259 208 181 132 275 147 134 132 135 164 274
145 149 176 191 195 169 273 338 321 303 335 329 318 313 308 290 295 290 290 211 136 288 280 271 150 291 288 262 238 268 256 200 271 272 257 260 229 252 251 255 233 264 156 176 209
143 136 198 188 148 196 185 194 200 294 296 297 283 296 293 281 281 286 292 282 270 264 263 167 291 150 223 154 140 165 185 158 229 257 213 190 138 222 225 165 249 137 140 140 142
286 182 156 150 135 141 208 218 170 135 142 280 189 279 286 292 290 285 287 274 208 265 269 285 268 167 251 257 251 251 250 252 238 243 257 198 249 248 246 245 263 246 263 257 262
213 219 161 223 196 155 198 152 170 150 162 142 143 303 284 287 290 288 281 274 262 265 270 209 263 251 246 226 219 252 250 237 240 253 245 236 248 232 250 244 246 265 251 260 257
Wind_Speed
85 83 91 89 83 79 83 83 80 74 66 85 76 86 82 80 82 67 85 62 72 83 85 68 62 59 58 64 72 72 56 63 71 32 43 20 26 13 23 44 16 30 46 24 20
84 85 88 83 95 88 91 77 84 86 77 77 84 64 87 82 83 81 75 67 69 88 62 91 65 63 60 59 70 67 58 36 70 38 40 42 34 45 57 51 55 14 37 22 36
69 87 86 92 93 94 94 93 94 89 88 85 90 88 92 84 88 79 83 73 72 74 78 100 86 80 65 62 60 78 61 64 53 67 67 48 57 44 32 49 60 18 44 38 38
67 67 78 93 85 97 95 85 86 91 91 88 89 85 84 82 83 84 78 90 75 90 80 95 91 68 81 66 62 61 89 65 56 61 61 69 55 52 61 54 41 46 48 56 43
56 67 71 85 85 91 100 87 93 91 88 89 92 85 80 78 82 79 80 83 80 87 90 85 82 83 74 68 69 74 62 77 75 55 60 55 59 23 59 64 36 52 43 53 37
55 59 63 72 61 81 95 102 96 85 90 95 93 85 84 87 87 83 84 80 82 86 86 90 91 84 85 90 75 79 68 63 75 69 65 56 53 52 49 51 60 45 43 56 45
36 59 63 67 66 76 80 96 99 99 85 91 90 96 89 89 76 83 90 85 83 83 87 88 94 93 86 95 88 77 71 70 63 89 87 68 50 54 52 45 57 49 42 61 54
30 30 30 55 68 73 76 80 80 92 100 101 102 96 92 92 90 73 83 79 76 78 87 87 84 83 92 93 90 89 70 66 69 60 98 61 72 54 52 56 46 43 59 54 41
22 25 24 19 53 53 64 56 61 81 85 85 81 82 77 83 77 75 77 72 75 80 80 85 83 81 80 82 82 85 71 65 69 86 63 86 59 51 49 46 44 48 52 55 60
20 35 27 23 23 54 59 57 68 77 81 85 81 79 78 77 76 70 73 73 74 76 79 83 81 81 84 78 80 85 90 70 69 77 97 69 67 54 48 47 49 43 52 55 60
27 30 11 12 19 22 60 64 68 77 76 77 81 79 76 74 74 71 73 73 74 77 78 78 78 77 81 83 87 82 74 68 81 70 84 98 22 56 50 51 47 50 59 47 57
17 13 19 24 19 25 57 65 66 64 70 64 80 82 78 79 79 76 71 69 73 79 82 77 78 79 78 75 79 76 77 76 76 63 86 89 71 29 50 56 51 47 50 47 59
36 33 5 5 11 16 26 47 59 54 56 61 74 80 80 75 75 71 70 69 66 72 71 75 73 72 74 77 77 76 78 77 80 69 85 85 72 61 50 56 55 49 50 60 54
29 32 27 9 9 19 20 32 50 66 60 55 56 71 75 73 72 73 72 70 71 73 72 71 73 72 74 77 74 77 76 71 72 75 58 53 45 56 51 41 35 27 61 55 25
30 29 33 40 24 21 32 25 29 36 54 53 50 45 50 62 65 64 57 62 58 63 66 64 61 71 67 63 65 66 63 41 36 32 33 33 35 41 44 53 23 51 58 51 48
29 26 27 32 39 22 25 25 20 22 26 44 49 33 30 38 41 43 46 46 50 51 59 52 57 56 48 30 23 18 14 14 10 11 14 18 20 23 34 57 56 39 42 25 40
29 24 25 27 32 43 26 28 15 12 24 22 25 36 39 40 29 27 29 27 33 31 22 18 14 16 16 14 13 12 10 9 8 24 8 57 12 16 28 31 48 37 34 40 39
34 27 27 42 27 31 38 40 37 25 19 17 17 21 19 18 17 16 16 17 19 18 20 22 21 19 16 13 13 11 9 11 14 14 17 41 44 52 56 57 47 48 18 41 45
99 34 32 30 30 31 27 33 34 35 33 33 32 30 30 30 29 27 26 24 25 27 24 22 20 19 18 16 16 17 18 16 15 13 11 12 12 9 17 4 6 12 33 44 47
88 99 36 28 25 21 25 23 25 26 33 35 36 35 34 34 33 30 29 29 27 25 23 22 21 22 21 18 18 16 14 12 11 22 31 27 30 31 32 33 36 43 44 45 15
64 47 99 45 36 28 23 13 16 19 23 27 30 30 32 31 29 29 28 27 25 23 22 22 20 19 19 17 14 24 22 36 38 42 36 38 39 38 27 15 34 40 43 45 45
72 45 39 94 47 42 35 32 29 20 15 16 22 20 15 17 22 21 19 18 17 16 16 15 15 15 30 26 26 41 37 50 28 41 45 48 22 38 35 35 22 38 42 45 46
65 49 53 41 33 66 70 60 52 50 47 45 19 27 23 16 16 14 15 12 18 28 37 38 36 33 32 43 47 42 35 34 26 41 32 22 25 29 39 33 38 36 41 27 17
31 33 49 59 61 42 86 70 78 80 64 61 58 56 54 48 47 43 40 23 8 41 42 37 13 27 41 37 34 50 37 21 45 47 42 44 29 34 24 27 12 22 42 33 15
26 25 57 49 35 56 55 52 55 82 76 67 66 54 46 42 39 37 38 44 42 38 33 12 30 15 28 15 18 16 20 23 28 43 9 20 32 23 17 33 17 39 41 43 46
64 38 22 26 29 32 58 62 36 24 24 69 34 59 51 41 34 34 36 39 22 34 33 32 45 13 38 41 35 37 36 41 24 21 33 15 27 25 18 13 24 10 20 14 15
68 52 21 49 46 35 51 24 29 22 28 22 24 47 49 47 37 33 29 32 33 30 40 23 39 36 33 27 19 39 43 24 21 29 30 15 25 13 13 11 9 20 9 17 16
Wind_Direction
243 254 251 245 242 240 242 243 244 240 242 242 244 234 241 237 240 251 237 252 242 235 240 228 221 220 225 232 233 234 228 236 234 245 226 218 215 240 220 232 227 232 233 228 232
257 253 241 244 238 240 242 248 241 243 243 241 245 240 238 244 237 244 240 254 250 238 225 239 221 224 222 225 231 231 230 230 235 246 239 228 230 231 227 233 231 281 234 242 232
241 239 247 236 236 239 241 246 248 246 247 246 240 237 242 244 245 244 245 255 253 249 242 239 236 234 221 222 223 231 231 237 234 237 234 222 235 228 239 233 232 247 237 234 235
230 234 237 235 236 235 240 246 248 247 249 250 251 248 251 253 248 249 252 245 249 239 247 238 242 227 227 220 222 224 235 232 232 238 236 232 229 231 231 232 237 238 236 233 234
227 226 229 241 230 234 234 242 243 245 248 249 248 250 250 248 253 252 245 245 249 247 243 242 243 244 230 222 222 230 224 230 232 230 235 230 234 221 236 231 231 232 236 235 238
227 229 224 236 232 237 231 234 238 244 245 247 248 247 249 250 250 251 252 248 251 251 245 242 241 242 245 235 226 225 225 225 232 230 233 232 233 231 233 231 231 236 239 234 238
243 231 231 230 224 233 234 234 235 237 242 247 249 248 249 251 246 252 254 251 251 243 242 243 243 243 240 237 245 223 222 225 225 235 234 233 214 233 235 222 233 236 238 231 234
278 253 257 234 221 230 230 232 234 237 240 243 245 247 247 248 250 240 245 245 246 243 242 244 246 246 245 242 243 245 227 221 225 224 235 227 233 221 232 230 237 226 229 235 223
313 292 275 271 226 227 224 217 218 230 234 236 238 241 238 243 241 240 238 237 241 244 244 243 246 249 250 250 250 253 235 222 224 234 225 233 225 229 229 228 221 232 236 231 232
326 292 289 292 237 231 223 215 210 220 225 233 239 240 238 240 241 240 238 242 245 244 246 246 245 249 251 252 254 257 251 237 222 231 243 236 230 206 217 219 229 222 233 234 232
304 294 290 221 200 210 214 217 213 218 224 226 230 236 239 243 243 243 242 241 245 245 247 248 248 251 253 254 255 253 254 242 250 222 251 242 232 213 213 216 219 222 233 232 234
7 298 284 272 253 224 214 215 223 225 222 226 225 230 235 236 241 241 242 245 244 246 246 248 249 252 255 255 256 253 250 251 252 219 243 251 227 237 205 217 215 217 225 225 231
18 35 39 241 228 225 231 213 223 233 231 225 224 225 228 235 238 242 242 243 245 245 246 248 251 252 254 254 256 256 260 260 260 244 256 259 230 248 213 216 222 218 221 229 228
26 24 46 16 161 189 173 206 216 225 234 235 226 225 229 231 234 237 241 242 244 247 247 250 251 252 255 256 259 263 265 262 260 262 221 261 257 256 221 226 233 222 228 225 232
27 32 40 55 68 86 155 185 194 200 221 233 238 239 229 232 237 237 244 242 244 245 248 249 258 257 257 263 263 260 260 263 254 260 260 258 256 256 256 227 246 225 227 224 225
33 31 41 36 63 91 136 130 143 179 182 228 234 231 239 241 237 239 240 246 247 253 255 255 259 257 262 258 243 230 237 234 231 246 249 246 246 257 239 225 221 227 221 220 231
41 45 46 45 51 68 120 113 120 132 166 191 216 234 241 244 239 246 235 239 239 249 249 239 198 176 166 163 163 174 193 211 220 223 226 222 243 241 236 239 226 225 226 235 232
51 52 57 54 55 51 65 76 85 110 128 155 178 157 149 157 172 186 181 185 153 145 144 141 133 140 149 161 176 177 180 192 202 204 220 227 228 226 225 225 230 229 235 222 225
29 55 34 56 40 63 58 80 86 91 99 101 103 108 109 111 114 117 121 129 129 128 125 128 144 145 146 156 162 175 186 192 197 207 216 225 227 85 255 54 358 314 230 224 228
26 31 62 53 60 71 47 69 64 75 99 102 108 109 110 111 111 117 124 120 121 128 138 142 139 142 154 162 169 169 156 141 125 109 108 98 93 97 94 88 218 227 230 231 233
24 30 33 70 76 80 81 85 84 69 69 94 102 103 109 110 112 114 121 124 131 133 133 139 145 150 152 171 153 126 119 109 103 101 98 97 97 98 102 191 222 227 228 231 231
24 33 22 36 68 69 74 79 81 61 52 56 68 74 74 82 106 107 112 124 116 124 125 130 141 147 124 128 141 118 118 105 194 100 101 99 190 220 221 93 94 231 232 231 238
22 40 39 29 33 60 59 72 80 83 86 87 80 85 92 83 92 109 96 111 105 111 116 117 121 125 119 120 116 114 118 117 125 120 113 147 198 228 90 229 234 238 244 236 105
39 40 44 43 44 36 50 61 61 60 79 83 84 87 89 92 95 98 101 107 124 117 116 120 168 116 124 120 131 120 117 135 109 113 112 107 117 106 106 107 132 96 236 234 208
30 47 21 29 26 47 57 56 50 53 55 59 62 69 78 79 87 92 102 114 118 119 117 143 115 195 126 178 208 173 168 208 122 115 175 193 235 139 156 232 129 240 243 246 247
29 30 25 21 39 27 36 43 67 68 58 55 62 57 56 67 78 89 106 115 114 107 109 116 119 173 115 120 119 118 116 118 110 116 120 177 112 123 135 138 118 135 99 114 116
13 29 21 25 24 31 30 30 77 32 76 47 48 54 60 61 67 77 95 106 101 110 120 122 121 118 123 129 124 122 124 112 116 117 122 101 126 99 123 125 106 116 137 105 131